DELTA 1 DEB, 10750

Orbit data source: Space-Track

DELTA 1 DEB, 10750 is space debris in SSO originally from a launch on Thu, 29 Jul 1976 UTC launched from the Air Force Western Test Range (AFWTR). Debris objects in space refer to the collection of defunct objects orbiting the Earth. Examples of debris include non-operational satellites, rocket bodies, and fragments generated from explosions, collisions, or faulty payload assembly.

Loading next visibility...
Identifier
10750, 1976-077AX
Orbit
SSO
Country
Flag of USUS
Related business
Manufacturer
Unknown
Mission
Spacecraft
Bus & Motor
Unknown
Mass
Unknown
Launch date (UTC)
1976-07-29 (49 years ago)
Launch vehicle
Unknown
Launch site
Air Force Western Test Range (AFWTR)
Object type
Payload
Rocket body
Debris
Shape & HBR
Unknown shape, 0.1 m
Radar Cross Section
Small (<0.1 m²)

Expand to show TLE details & history
Last TLE update: 16 hours ago

TLE from 16 hours ago
0 DELTA 1 DEB
1 10750U 76077AX  25351.48109527  .00008382  00000-0  55557-2 0  9992
2 10750 101.6721 266.8649 0367371 213.8100 143.9119 13.73583830340653
Epoch: 2025-12-17T11:32Z
TLE epoch observation values (Epoch: 2025-12-17T11:32:46.631Z)
Latitude
-0.00002°
Longitude
7.32027°
Altitude
1,211.462 km
Speed
7.139 km/s
True Right ascension
17h 47m 27s
True Declination
0° 00' 00"
Sunlit
Object was in daylight at epoch
Visualization orbit readout
Latitude
Unknown
Longitude
Unknown
Altitude
Unknown
Speed
Unknown
Apparent Right ascension
Unknown
Apparent Declination
Unknown
Sunlit
N/A
Visualization observer readout
Local Sidereal Time
02:02:11
Azimuth
Unknown
Elevation
Unknown
Doppler factor
Unknown
Orbital elements
Apogee altitude
1,254.577 km
Perigee altitude
713.642 km
Semi-major axis
7,362.247 km
Eccentricity
0.03674
Inclination
101.6721°
RAAN
266.8649°
Arg. of periapsis
213.81°
True anomaly
146.30203°
Mean anomaly
143.9119°
Eccentric anomaly
145.11573°
Mean motion
3.4358 °/min
Orbital period
104.78 mins
BSTAR
0.0055557
Loading maneuver chart data...
Computing Atmospheric mass density...
Loading historical data...
Loading historical data...
Loading historical data...
Loading historical data...
Loading historical data...
Loading historical data...
Loading historical data...

Documentation

Showing up to 5 results
|